Location: Unspecified
(43.4354°N, 0.0000°E)
Time: 14:59:01
(UTC+00:00)

S-56A Canister/Altair - Pass Details

Date: 27 June 2019
Orbit: 632 x 2500 km, 38.9° (Epoch: 17 July)

Event Time Altitude Azimuth Distance (km) Brightness Sun altitude
Rises 14:50:14 0° 244° (WSW) 5,738 12.6 50.3°
Reaches altitude 10° 14:54:27 10° 241° (WSW) 4,501 12.3 49.6°
Maximum altitude 15:05:47 58° 168° (SSE) 1,733 10.0 47.6°
Drops below altitude 10° 15:13:16 10° 91° (E) 3,040 10.3 46.2°
Sets 15:15:36 0° 87° (E) 3,798 10.7 45.8°
